RA1972G USUU-USCC

Flight info

Callsign RA1972G
Flight time 2h 1m
Altitude 3500
Route 5531N06518E/RIBOK 5527N06456E/FILIN XSUL 5523N06428E/URGAMISH 5522N06354E/MISHKINO 5514N06317E/SHMIHA 5513N06243E/SCHUCHE 5516N06152E/MIASSKOE XSCW DCT
Aircraft PA24/L-SDF/C

Departure

Time 2026-04-29 18:36
Airport Kurgan Airport (USUU)

Arrival

Time 2026-04-29 20:37
Airport Kurchatov Chelyabinsk International Airport (USCC)
Time Latitude Longitude Altitude Speed Heading
2026-04-29 18:03 55.46471 65.41071 214 ft 0 kts 121°
2026-04-29 18:25 55.46446 65.41115 220 ft 8 kts 165°
2026-04-29 18:25 55.46395 65.41081 220 ft 9 kts 211°
2026-04-29 18:26 55.46342 65.41015 220 ft 9 kts 227°
2026-04-29 18:26 55.46354 65.40927 220 ft 9 kts 301°
2026-04-29 18:26 55.46396 65.40805 220 ft 13 kts 301°
2026-04-29 18:26 55.46442 65.40670 220 ft 0 kts 302°
2026-04-29 18:27 55.46451 65.40645 219 ft 8 kts 301°
2026-04-29 18:28 55.46501 65.40522 218 ft 11 kts 341°
2026-04-29 18:28 55.46581 65.40566 218 ft 15 kts 31°
2026-04-29 18:28 55.46684 65.40670 221 ft 18 kts 28°
2026-04-29 18:28 55.46804 65.40786 222 ft 21 kts 30°
2026-04-29 18:29 55.46939 65.40928 222 ft 24 kts 31°
2026-04-29 18:29 55.47040 65.41034 221 ft 26 kts 30°
2026-04-29 18:29 55.47252 65.41251 220 ft 27 kts 33°
2026-04-29 18:29 55.47415 65.41420 222 ft 27 kts 27°
2026-04-29 18:30 55.47583 65.41586 222 ft 28 kts 31°
2026-04-29 18:30 55.47758 65.41767 219 ft 30 kts 30°
2026-04-29 18:30 55.47937 65.41949 219 ft 27 kts 30°
2026-04-29 18:30 55.48088 65.42101 220 ft 23 kts 29°
2026-04-29 18:31 55.48227 65.42238 220 ft 20 kts 30°
2026-04-29 18:31 55.48361 65.42372 218 ft 22 kts 31°
2026-04-29 18:31 55.48475 65.42465 218 ft 13 kts 41°
2026-04-29 18:31 55.48473 65.42493 218 ft 7 kts 181°
2026-04-29 18:32 55.48451 65.42479 218 ft 0 kts 204°
2026-04-29 18:35 55.48335 65.42366 219 ft 56 kts 211°
2026-04-29 18:35 55.47863 65.41866 295 ft 91 kts 210°
2026-04-29 18:35 55.47257 65.41288 513 ft 103 kts 209°
2026-04-29 18:35 55.46603 65.40711 820 ft 107 kts 202°
2026-04-29 18:36 55.45853 65.40501 981 ft 115 kts 175°
2026-04-29 18:36 55.45164 65.41203 1165 ft 120 kts 126°
2026-04-29 18:36 55.44988 65.42600 1315 ft 128 kts 71°
2026-04-29 18:36 55.45579 65.43677 1572 ft 118 kts 14°
2026-04-29 18:37 55.46337 65.43448 1781 ft 113 kts 321°
2026-04-29 18:37 55.46853 65.42557 2090 ft 99 kts 307°
2026-04-29 18:37 55.47295 65.41503 2180 ft 107 kts 300°
2026-04-29 18:37 55.47649 65.40455 2478 ft 97 kts 297°
2026-04-29 18:38 55.48007 65.39377 2572 ft 106 kts 297°
2026-04-29 18:38 55.48367 65.38310 2847 ft 98 kts 297°
2026-04-29 18:38 55.48732 65.37240 2983 ft 105 kts 297°
2026-04-29 18:38 55.49103 65.36162 3241 ft 100 kts 297°
2026-04-29 18:39 55.49481 65.35076 3401 ft 105 kts 297°
2026-04-29 18:39 55.49855 65.34008 3629 ft 102 kts 297°
2026-04-29 18:39 55.50237 65.32941 3805 ft 105 kts 297°
2026-04-29 18:39 55.50637 65.31841 4010 ft 104 kts 297°
2026-04-29 18:40 55.50929 65.30699 4175 ft 108 kts 272°
2026-04-29 18:40 55.50754 65.29432 4383 ft 101 kts 246°
2026-04-29 18:40 55.50451 65.28324 4472 ft 110 kts 245°
2026-04-29 18:40 55.50084 65.27016 4434 ft 125 kts 245°
2026-04-29 18:41 55.48740 65.22377 3733 ft 142 kts 244°
2026-04-29 18:41 55.48273 65.20832 3493 ft 141 kts 244°
2026-04-29 18:42 55.47831 65.19389 3503 ft 132 kts 244°
2026-04-29 18:42 55.47392 65.17964 3522 ft 132 kts 244°
2026-04-29 18:42 55.46950 65.16534 3528 ft 134 kts 244°
2026-04-29 18:42 55.46499 65.15085 3526 ft 136 kts 244°
2026-04-29 18:43 55.46041 65.13613 3523 ft 138 kts 244°
2026-04-29 18:43 55.45582 65.12131 3526 ft 138 kts 246°
2026-04-29 18:43 55.45201 65.10569 3522 ft 138 kts 250°
2026-04-29 18:43 55.44855 65.08989 3524 ft 139 kts 253°
2026-04-29 18:44 55.44552 65.07369 3524 ft 139 kts 253°
2026-04-29 18:44 55.44339 65.05712 3524 ft 139 kts 265°
2026-04-29 18:44 55.44264 65.04012 3523 ft 139 kts 266°
2026-04-29 18:44 55.44197 65.02314 3520 ft 139 kts 266°
2026-04-29 18:45 55.44196 65.00623 3522 ft 138 kts 274°
2026-04-29 18:45 55.44276 64.98936 3522 ft 138 kts 274°
2026-04-29 18:45 55.44355 64.97245 3521 ft 138 kts 274°
2026-04-29 18:45 55.44434 64.95559 3522 ft 136 kts 274°
2026-04-29 18:46 55.44357 64.93965 3248 ft 136 kts 240°
2026-04-29 18:46 55.43566 64.93150 2826 ft 138 kts 187°
2026-04-29 18:46 55.42610 64.93559 2257 ft 147 kts 167°
2026-04-29 18:46 55.41616 64.94107 1644 ft 152 kts 165°
2026-04-29 18:47 55.40658 64.94662 1343 ft 133 kts 166°
2026-04-29 18:47 55.40090 64.94975 1188 ft 122 kts 162°
2026-04-29 18:47 55.39566 64.96380 966 ft 111 kts 91°
2026-04-29 18:47 55.39666 64.97289 948 ft 115 kts 69°
2026-04-29 18:48 55.39975 64.98641 890 ft 115 kts 69°
2026-04-29 18:48 55.40199 64.99890 925 ft 99 kts 60°
2026-04-29 18:48 55.40760 65.00409 885 ft 96 kts
2026-04-29 18:48 55.41338 65.00075 920 ft 88 kts 333°
2026-04-29 18:49 55.41872 64.99582 949 ft 84 kts 318°
2026-04-29 18:49 55.42087 64.98680 926 ft 86 kts 256°
2026-04-29 18:49 55.41889 64.97677 844 ft 86 kts 248°
2026-04-29 18:49 55.41634 64.96734 716 ft 83 kts 245°
2026-04-29 18:50 55.41407 64.95806 557 ft 80 kts 248°
2026-04-29 18:50 55.41215 64.94965 486 ft 69 kts 248°
2026-04-29 18:50 55.41077 64.94326 474 ft 42 kts 253°
2026-04-29 18:50 55.41036 64.94044 473 ft 11 kts 300°
2026-04-29 18:51 55.41096 64.93979 481 ft 10 kts 340°
2026-04-29 18:51 55.41141 64.93961 487 ft 12 kts 353°
2026-04-29 18:51 55.41184 64.93927 487 ft 0 kts 75°
2026-04-29 18:51 55.41166 64.94028 486 ft 5 kts 81°
2026-04-29 18:52 55.41169 64.94060 486 ft 3 kts 114°
2026-04-29 18:52 55.41164 64.94062 481 ft 0 kts 235°
2026-04-29 18:59 55.41142 64.94069 480 ft 9 kts 146°
2026-04-29 18:59 55.41085 64.94162 474 ft 14 kts 115°
2026-04-29 19:00 55.41068 64.94297 474 ft 7 kts 94°
2026-04-29 19:00 55.41069 64.94406 476 ft 12 kts 82°
2026-04-29 19:00 55.41107 64.94555 477 ft 13 kts 63°
2026-04-29 19:00 55.41162 64.94739 476 ft 20 kts 64°
2026-04-29 19:01 55.41195 64.94906 477 ft 11 kts 85°
2026-04-29 19:01 55.41208 64.95042 483 ft 10 kts 84°
2026-04-29 19:01 55.41223 64.95059 480 ft 0 kts 244°
2026-04-29 19:01 55.41219 64.95043 479 ft 0 kts 250°
2026-04-29 19:03 55.41187 64.94917 478 ft 45 kts 247°
2026-04-29 19:04 55.41013 64.94075 524 ft 88 kts 246°
2026-04-29 19:04 55.40751 64.93022 769 ft 95 kts 245°
2026-04-29 19:04 55.40506 64.91924 1059 ft 101 kts 254°
2026-04-29 19:04 55.40362 64.90753 1441 ft 93 kts 264°
2026-04-29 19:05 55.40253 64.89617 1653 ft 99 kts 259°
2026-04-29 19:05 55.40098 64.88447 1910 ft 93 kts 258°
2026-04-29 19:05 55.39947 64.87330 2098 ft 97 kts 259°
2026-04-29 19:05 55.39798 64.86181 2347 ft 93 kts 259°
2026-04-29 19:06 55.39655 64.85055 2555 ft 96 kts 259°
2026-04-29 19:06 55.39517 64.83920 2809 ft 93 kts 259°
2026-04-29 19:06 55.39247 64.81660 3256 ft 93 kts 259°
2026-04-29 19:07 55.39113 64.80535 3457 ft 95 kts 259°
2026-04-29 19:07 55.39022 64.79764 3569 ft 99 kts 259°
2026-04-29 19:07 55.38822 64.77985 3565 ft 121 kts 259°
2026-04-29 19:07 55.38646 64.76437 3527 ft 133 kts 259°
2026-04-29 19:08 55.38459 64.74820 3543 ft 137 kts 259°
2026-04-29 19:08 55.38298 64.73153 3539 ft 140 kts 266°
2026-04-29 19:08 55.38257 64.71422 3531 ft 142 kts 268°
2026-04-29 19:08 55.38219 64.69703 3532 ft 140 kts 268°
2026-04-29 19:09 55.38182 64.67994 3531 ft 140 kts 268°
2026-04-29 19:09 55.38143 64.66292 3531 ft 139 kts 268°
2026-04-29 19:09 55.38104 64.64591 3527 ft 139 kts 268°
2026-04-29 19:09 55.38065 64.62895 3531 ft 139 kts 268°
2026-04-29 19:10 55.38026 64.61199 3533 ft 139 kts 267°
2026-04-29 19:10 55.37984 64.59507 3532 ft 138 kts 267°
2026-04-29 19:10 55.37942 64.57826 3535 ft 137 kts 267°
2026-04-29 19:10 55.37900 64.56143 3531 ft 139 kts 267°
2026-04-29 19:11 55.37855 64.54443 3535 ft 139 kts 267°
2026-04-29 19:11 55.37809 64.52742 3533 ft 140 kts 267°
2026-04-29 19:11 55.37762 64.51035 3529 ft 140 kts 267°
2026-04-29 19:11 55.37715 64.49328 3530 ft 140 kts 267°
2026-04-29 19:12 55.37667 64.47615 3533 ft 140 kts 267°
2026-04-29 19:12 55.37617 64.45902 3536 ft 141 kts 267°
2026-04-29 19:12 55.37569 64.44176 3531 ft 141 kts 268°
2026-04-29 19:12 55.37542 64.43040 3532 ft 141 kts 265°
2026-04-29 19:13 55.37383 64.40754 3533 ft 140 kts 264°
2026-04-29 19:13 55.37276 64.39047 3533 ft 140 kts 265°
2026-04-29 19:13 55.37265 64.37338 3531 ft 140 kts 270°
2026-04-29 19:13 55.37195 64.35632 3531 ft 140 kts 264°
2026-04-29 19:14 55.37103 64.33925 3532 ft 140 kts 265°
2026-04-29 19:14 55.37010 64.32223 3531 ft 140 kts 264°
2026-04-29 19:14 55.36916 64.30520 3536 ft 140 kts 264°
2026-04-29 19:14 55.36819 64.28818 3535 ft 139 kts 264°
2026-04-29 19:15 55.36723 64.27123 3527 ft 139 kts 264°
2026-04-29 19:15 55.36625 64.25425 3538 ft 140 kts 264°
2026-04-29 19:15 55.36527 64.23722 3538 ft 141 kts 264°
2026-04-29 19:15 55.36427 64.22007 3535 ft 141 kts 264°
2026-04-29 19:16 55.36326 64.20289 3537 ft 141 kts 264°
2026-04-29 19:16 55.36223 64.18575 3537 ft 141 kts 264°
2026-04-29 19:16 55.36120 64.16857 3533 ft 141 kts 264°
2026-04-29 19:16 55.36017 64.15145 3530 ft 141 kts 264°
2026-04-29 19:17 55.35913 64.13427 3534 ft 141 kts 264°
2026-04-29 19:17 55.35807 64.11713 3533 ft 140 kts 264°
2026-04-29 19:17 55.35702 64.10014 3531 ft 140 kts 264°
2026-04-29 19:17 55.35597 64.08327 3530 ft 139 kts 264°
2026-04-29 19:18 55.35491 64.06629 3531 ft 140 kts 264°
2026-04-29 19:18 55.35421 64.05503 3531 ft 140 kts 264°
2026-04-29 19:18 55.35275 64.03230 3530 ft 140 kts 264°
2026-04-29 19:18 55.35166 64.01533 3526 ft 140 kts 264°
2026-04-29 19:19 55.35055 63.99837 3529 ft 140 kts 264°
2026-04-29 19:19 55.34943 63.98139 3533 ft 140 kts 264°
2026-04-29 19:19 55.34832 63.96441 3529 ft 140 kts 263°
2026-04-29 19:19 55.34720 63.94743 3528 ft 140 kts 263°
2026-04-29 19:20 55.34607 63.93049 3526 ft 140 kts 263°
2026-04-29 19:20 55.34492 63.91350 3529 ft 140 kts 263°
2026-04-29 19:20 55.34377 63.89657 3530 ft 140 kts 263°
2026-04-29 19:20 55.34262 63.87963 3527 ft 140 kts 263°
2026-04-29 19:21 55.34145 63.86267 3531 ft 140 kts 263°
2026-04-29 19:21 55.33992 63.84583 3534 ft 140 kts 255°
2026-04-29 19:21 55.33695 63.82945 3529 ft 141 kts 253°
2026-04-29 19:21 55.33395 63.81313 3527 ft 140 kts 253°
2026-04-29 19:22 55.33093 63.79686 3533 ft 140 kts 253°
2026-04-29 19:22 55.32790 63.78054 3529 ft 141 kts 253°
2026-04-29 19:22 55.32486 63.76428 3531 ft 140 kts 253°
2026-04-29 19:22 55.32182 63.74807 3531 ft 140 kts 253°
2026-04-29 19:23 55.31876 63.73184 3533 ft 141 kts 253°
2026-04-29 19:23 55.31569 63.71555 3532 ft 140 kts 253°
2026-04-29 19:23 55.31261 63.69925 3529 ft 141 kts 253°
2026-04-29 19:23 55.30953 63.68299 3533 ft 140 kts 253°
2026-04-29 19:24 55.30643 63.66678 3533 ft 140 kts 252°
2026-04-29 19:24 55.30333 63.65059 3535 ft 140 kts 252°
2026-04-29 19:24 55.30026 63.63461 3532 ft 140 kts 252°
2026-04-29 19:24 55.29710 63.61823 3531 ft 140 kts 252°
2026-04-29 19:25 55.29399 63.60208 3527 ft 140 kts 252°
2026-04-29 19:25 55.29088 63.58595 3531 ft 140 kts 252°
2026-04-29 19:25 55.28774 63.56979 3529 ft 139 kts 252°
2026-04-29 19:25 55.28461 63.55376 3535 ft 139 kts 252°
2026-04-29 19:26 55.28253 63.54311 3531 ft 140 kts 252°
2026-04-29 19:26 55.27935 63.52688 3536 ft 141 kts 252°
2026-04-29 19:26 55.27615 63.51054 3527 ft 142 kts 252°
2026-04-29 19:26 55.27293 63.49413 3532 ft 142 kts 252°
2026-04-29 19:27 55.26967 63.47757 3533 ft 142 kts 252°
2026-04-29 19:27 55.26644 63.46118 3528 ft 141 kts 252°
2026-04-29 19:27 55.26328 63.44518 3527 ft 141 kts 252°
2026-04-29 19:27 55.26001 63.42872 3530 ft 141 kts 252°
2026-04-29 19:28 55.25679 63.41257 3528 ft 141 kts 252°
2026-04-29 19:28 55.25357 63.39643 3531 ft 140 kts 252°
2026-04-29 19:28 55.25035 63.38032 3527 ft 140 kts 252°
2026-04-29 19:28 55.24711 63.36420 3523 ft 140 kts 252°
2026-04-29 19:29 55.24387 63.34818 3525 ft 140 kts 252°
2026-04-29 19:29 55.24061 63.33208 3528 ft 140 kts 252°
2026-04-29 19:29 55.23736 63.31600 3528 ft 140 kts 251°
2026-04-29 19:29 55.23410 63.29997 3529 ft 140 kts 251°
2026-04-29 19:30 55.23082 63.28394 3527 ft 140 kts 251°
2026-04-29 19:30 55.22854 63.26743 3528 ft 140 kts 262°
2026-04-29 19:30 55.22700 63.25060 3527 ft 140 kts 261°
2026-04-29 19:30 55.22557 63.23376 3530 ft 140 kts 263°
2026-04-29 19:31 55.22457 63.21680 3528 ft 140 kts 265°
2026-04-29 19:31 55.22375 63.19980 3532 ft 140 kts 265°
2026-04-29 19:31 55.22291 63.18279 3529 ft 140 kts 265°
2026-04-29 19:31 55.22207 63.16580 3526 ft 140 kts 265°
2026-04-29 19:32 55.22123 63.14881 3527 ft 140 kts 265°
2026-04-29 19:32 55.22036 63.13173 3529 ft 142 kts 265°
2026-04-29 19:32 55.21948 63.11455 3529 ft 141 kts 265°
2026-04-29 19:32 55.21860 63.09742 3528 ft 141 kts 265°
2026-04-29 19:33 55.21772 63.08030 3527 ft 141 kts 265°
2026-04-29 19:33 55.21684 63.06323 3526 ft 140 kts 265°
2026-04-29 19:33 55.21594 63.04617 3524 ft 141 kts 265°
2026-04-29 19:33 55.21503 63.02908 3525 ft 141 kts 265°
2026-04-29 19:34 55.21412 63.01207 3526 ft 140 kts 265°
2026-04-29 19:34 55.21320 62.99508 3528 ft 140 kts 265°
2026-04-29 19:34 55.21227 62.97810 3528 ft 140 kts 264°
2026-04-29 19:34 55.21133 62.96127 3527 ft 141 kts 264°
2026-04-29 19:35 55.21035 62.94420 3529 ft 141 kts 264°
2026-04-29 19:35 55.20936 62.92714 3529 ft 140 kts 264°
2026-04-29 19:35 55.20836 62.91022 3528 ft 140 kts 264°
2026-04-29 19:35 55.20735 62.89334 3527 ft 139 kts 264°
2026-04-29 19:36 55.20633 62.87640 3527 ft 141 kts 264°
2026-04-29 19:36 55.20529 62.85914 3527 ft 141 kts 264°
2026-04-29 19:36 55.20426 62.84206 3525 ft 141 kts 264°
2026-04-29 19:36 55.20321 62.82490 3524 ft 142 kts 264°
2026-04-29 19:37 55.20215 62.80777 3531 ft 142 kts 264°
2026-04-29 19:37 55.20142 62.79607 3532 ft 143 kts 264°
2026-04-29 19:37 55.19998 62.77327 3530 ft 142 kts 264°
2026-04-29 19:37 55.19890 62.75611 3524 ft 142 kts 264°
2026-04-29 19:38 55.19781 62.73894 3530 ft 142 kts 264°
2026-04-29 19:38 55.19764 62.72168 3531 ft 142 kts 272°
2026-04-29 19:38 55.19800 62.70433 3531 ft 144 kts 272°
2026-04-29 19:38 55.19835 62.68677 3531 ft 144 kts 272°
2026-04-29 19:39 55.19869 62.66932 3529 ft 144 kts 272°
2026-04-29 19:39 55.19899 62.65186 3526 ft 143 kts 271°
2026-04-29 19:39 55.19929 62.63444 3526 ft 143 kts 271°
2026-04-29 19:39 55.19958 62.61707 3529 ft 143 kts 271°
2026-04-29 19:40 55.19987 62.59963 3524 ft 143 kts 271°
2026-04-29 19:40 55.20013 62.58216 3528 ft 143 kts 271°
2026-04-29 19:40 55.20038 62.56480 3525 ft 142 kts 271°
2026-04-29 19:40 55.20062 62.54751 3526 ft 142 kts 271°
2026-04-29 19:41 55.20083 62.53262 3529 ft 143 kts 271°
2026-04-29 19:41 55.20105 62.51549 3525 ft 143 kts 271°
2026-04-29 19:41 55.20314 62.49865 3526 ft 144 kts 298°
2026-04-29 19:41 55.20846 62.48377 3524 ft 145 kts 300°
2026-04-29 19:42 55.21376 62.46887 3528 ft 144 kts 300°
2026-04-29 19:42 55.21736 62.45883 3526 ft 143 kts 300°
2026-04-29 19:42 55.22437 62.43931 3527 ft 143 kts 299°
2026-04-29 19:42 55.22682 62.42256 3529 ft 144 kts 270°
2026-04-29 19:43 55.22696 62.40513 3528 ft 143 kts 271°
2026-04-29 19:43 55.22715 62.38774 3525 ft 142 kts 271°
2026-04-29 19:43 55.22729 62.37045 3528 ft 142 kts 271°
2026-04-29 19:43 55.22741 62.35315 3530 ft 142 kts 271°
2026-04-29 19:44 55.22752 62.33589 3530 ft 141 kts 271°
2026-04-29 19:44 55.22761 62.31868 3528 ft 141 kts 271°
2026-04-29 19:44 55.22770 62.30152 3530 ft 141 kts 271°
2026-04-29 19:44 55.22777 62.28428 3530 ft 142 kts 271°
2026-04-29 19:45 55.22783 62.26701 3530 ft 142 kts 270°
2026-04-29 19:45 55.22791 62.24970 3534 ft 141 kts 270°
2026-04-29 19:45 55.22796 62.23246 3533 ft 142 kts 270°
2026-04-29 19:45 55.22798 62.21519 3528 ft 142 kts 270°
2026-04-29 19:46 55.22801 62.19790 3526 ft 142 kts 270°
2026-04-29 19:46 55.22802 62.18070 3527 ft 141 kts 270°
2026-04-29 19:46 55.22803 62.16355 3526 ft 141 kts 270°
2026-04-29 19:46 55.22804 62.14641 3526 ft 141 kts 270°
2026-04-29 19:47 55.22803 62.12925 3525 ft 141 kts 270°
2026-04-29 19:47 55.22799 62.11204 3525 ft 141 kts 270°
2026-04-29 19:47 55.22795 62.09489 3526 ft 141 kts 270°
2026-04-29 19:47 55.22791 62.07750 3526 ft 141 kts 270°
2026-04-29 19:48 55.22785 62.06034 3525 ft 141 kts 270°
2026-04-29 19:48 55.22780 62.04893 3526 ft 142 kts 270°
2026-04-29 19:48 55.22769 62.02576 3530 ft 142 kts 270°
2026-04-29 19:48 55.22758 62.00851 3526 ft 141 kts 270°
2026-04-29 19:49 55.22899 61.99166 3534 ft 141 kts 287°
2026-04-29 19:49 55.23327 61.97625 3526 ft 142 kts 300°
2026-04-29 19:49 55.23842 61.96150 3528 ft 142 kts 300°
2026-04-29 19:49 55.24354 61.94681 3527 ft 141 kts 300°
2026-04-29 19:50 55.24866 61.93216 3527 ft 141 kts 300°
2026-04-29 19:50 55.25383 61.91736 3528 ft 143 kts 300°
2026-04-29 19:50 55.25902 61.90248 3526 ft 143 kts 300°
2026-04-29 19:50 55.26413 61.88786 3525 ft 143 kts 300°
2026-04-29 19:51 55.26836 61.87205 3523 ft 143 kts 278°
2026-04-29 19:51 55.26597 61.85577 3528 ft 144 kts 235°
2026-04-29 19:51 55.25772 61.84562 3535 ft 149 kts 209°
2026-04-29 19:51 55.24833 61.83768 3526 ft 149 kts 210°
2026-04-29 19:52 55.23898 61.82992 3525 ft 149 kts 209°
2026-04-29 19:52 55.22962 61.82228 3524 ft 148 kts 209°
2026-04-29 19:52 55.22031 61.81473 3529 ft 148 kts 209°
2026-04-29 19:52 55.21098 61.80719 3525 ft 148 kts 209°
2026-04-29 19:53 55.20158 61.79964 3527 ft 148 kts 209°
2026-04-29 19:53 55.19221 61.79215 3524 ft 148 kts 209°
2026-04-29 19:53 55.18284 61.78468 3526 ft 148 kts 208°
2026-04-29 19:53 55.17349 61.77725 3527 ft 148 kts 208°
2026-04-29 19:54 55.15477 61.76246 3527 ft 148 kts 208°
2026-04-29 19:54 55.14537 61.75509 3528 ft 148 kts 208°
2026-04-29 19:54 55.13596 61.74768 3525 ft 149 kts 208°
2026-04-29 19:55 55.12654 61.74027 3528 ft 149 kts 208°
2026-04-29 19:55 55.11705 61.73283 3526 ft 149 kts 208°
2026-04-29 19:55 55.10759 61.72544 3528 ft 149 kts 208°
2026-04-29 19:55 55.09812 61.71807 3529 ft 149 kts 208°
2026-04-29 19:56 55.08865 61.71074 3528 ft 149 kts 208°
2026-04-29 19:56 55.07921 61.70347 3528 ft 148 kts 208°
2026-04-29 19:56 55.06977 61.69623 3529 ft 148 kts 208°
2026-04-29 19:56 55.06034 61.68899 3528 ft 148 kts 208°
2026-04-29 19:57 55.05155 61.67967 3525 ft 147 kts 218°
2026-04-29 19:57 55.04598 61.67299 3527 ft 147 kts 220°
2026-04-29 19:57 55.03528 61.65806 3532 ft 148 kts 223°
2026-04-29 19:57 55.02724 61.64677 3534 ft 149 kts 223°
2026-04-29 19:58 55.01918 61.63539 3533 ft 149 kts 223°
2026-04-29 19:58 55.01106 61.62397 3532 ft 149 kts 223°
2026-04-29 19:58 55.00303 61.61270 3531 ft 149 kts 223°
2026-04-29 19:58 54.99497 61.60140 3535 ft 149 kts 223°
2026-04-29 19:59 54.98688 61.59010 3535 ft 149 kts 223°
2026-04-29 19:59 54.97880 61.57889 3535 ft 148 kts 222°
2026-04-29 19:59 54.97080 61.56781 3536 ft 148 kts 222°
2026-04-29 19:59 54.96263 61.55707 3507 ft 145 kts 213°
2026-04-29 20:00 54.95265 61.55340 3066 ft 157 kts 180°
2026-04-29 20:00 54.94175 61.55564 2869 ft 144 kts 181°
2026-04-29 20:00 54.93269 61.55258 2598 ft 127 kts 214°
2026-04-29 20:00 54.92769 61.54240 2496 ft 102 kts 258°
2026-04-29 20:01 54.92790 61.53050 2171 ft 103 kts 294°
2026-04-29 20:01 54.93362 61.52324 1692 ft 116 kts 345°
2026-04-29 20:01 54.94163 61.51920 1289 ft 120 kts 333°
2026-04-29 20:01 54.94790 61.51030 964 ft 115 kts 317°
2026-04-29 20:02 54.95352 61.50124 794 ft 104 kts 315°
2026-04-29 20:02 54.95732 61.49216 1091 ft 87 kts 278°
2026-04-29 20:02 54.95478 61.48194 1137 ft 105 kts 227°
2026-04-29 20:02 54.95315 61.47895 1193 ft 97 kts 226°
2026-04-29 20:03 54.94263 61.47788 1159 ft 104 kts 142°
2026-04-29 20:03 54.93808 61.48741 1207 ft 102 kts 128°
2026-04-29 20:03 54.93356 61.49709 1214 ft 104 kts 131°
2026-04-29 20:03 54.92864 61.50644 1124 ft 106 kts 136°
2026-04-29 20:04 54.92375 61.51579 1063 ft 105 kts 113°
2026-04-29 20:04 54.92423 61.52720 986 ft 92 kts 59°
2026-04-29 20:04 54.92659 61.53301 955 ft 83 kts 46°
2026-04-29 20:04 54.93109 61.53924 953 ft 80 kts
2026-04-29 20:05 54.93405 61.53283 937 ft 81 kts 285°
2026-04-29 20:05 54.93774 61.52616 981 ft 78 kts 321°
2026-04-29 20:05 54.94173 61.52061 916 ft 75 kts 315°
2026-04-29 20:05 54.94580 61.51401 815 ft 78 kts 315°
2026-04-29 20:06 54.94958 61.50785 751 ft 70 kts 315°
2026-04-29 20:06 54.95250 61.50287 726 ft 45 kts 309°
2026-04-29 20:06 54.95370 61.50071 733 ft 6 kts 321°
2026-04-29 20:06 54.95369 61.50087 733 ft 8 kts 132°
2026-04-29 20:07 54.95301 61.50203 728 ft 14 kts 131°
2026-04-29 20:07 54.95317 61.50296 729 ft 2 kts 35°
2026-04-29 20:07 54.95338 61.50306 733 ft 2 kts 332°
2026-04-29 20:07 54.95341 61.50317 734 ft 0 kts 136°
2026-04-29 20:19 54.95312 61.50293 729 ft 8 kts 226°
2026-04-29 20:19 54.95307 61.50285 728 ft 5 kts 222°
2026-04-29 20:20 54.95256 61.50279 726 ft 10 kts 142°
2026-04-29 20:20 54.95180 61.50411 720 ft 20 kts 137°
2026-04-29 20:20 54.95104 61.50560 718 ft 11 kts 142°
2026-04-29 20:20 54.95090 61.50553 717 ft 0 kts 312°
2026-04-29 20:22 54.95097 61.50541 719 ft 17 kts 312°
2026-04-29 20:23 54.95382 61.50077 746 ft 83 kts 313°
2026-04-29 20:23 54.95823 61.49363 992 ft 90 kts 321°
2026-04-29 20:23 54.96404 61.48995 1334 ft 89 kts 351°
2026-04-29 20:23 54.97037 61.49144 1515 ft 96 kts 17°
2026-04-29 20:24 54.97637 61.49699 1745 ft 98 kts 27°
2026-04-29 20:24 54.98262 61.50322 1888 ft 108 kts 25°
2026-04-29 20:24 54.98885 61.50955 2220 ft 101 kts 24°
2026-04-29 20:24 54.99518 61.51605 2380 ft 108 kts 24°
2026-04-29 20:25 55.00146 61.52257 2635 ft 104 kts 24°
2026-04-29 20:25 55.00787 61.52924 2799 ft 109 kts 24°
2026-04-29 20:25 55.01422 61.53587 3031 ft 107 kts 24°
2026-04-29 20:25 55.02077 61.54261 3264 ft 110 kts 24°
2026-04-29 20:26 55.02728 61.54937 3510 ft 109 kts 24°
2026-04-29 20:26 55.03392 61.55619 3706 ft 111 kts 24°
2026-04-29 20:26 55.04057 61.56300 3926 ft 112 kts 24°
2026-04-29 20:26 55.04733 61.56988 4131 ft 112 kts 24°
2026-04-29 20:27 55.05410 61.57667 4331 ft 113 kts 24°
2026-04-29 20:27 55.05866 61.58122 4443 ft 114 kts 24°
2026-04-29 20:27 55.06788 61.59039 4718 ft 115 kts 24°
2026-04-29 20:27 55.07485 61.59725 4908 ft 115 kts 24°
2026-04-29 20:28 55.08184 61.60410 5084 ft 116 kts 24°
2026-04-29 20:28 55.08890 61.61099 5280 ft 116 kts 24°
2026-04-29 20:28 55.09603 61.61790 5453 ft 118 kts 24°
2026-04-29 20:28 55.10321 61.62482 5633 ft 118 kts 24°
2026-04-29 20:29 55.11047 61.63178 5814 ft 119 kts 24°
2026-04-29 20:29 55.11782 61.63874 5993 ft 119 kts 24°
2026-04-29 20:29 55.12567 61.64415 5943 ft 128 kts
2026-04-29 20:29 55.13434 61.64214 5753 ft 125 kts 341°
2026-04-29 20:30 55.14260 61.63863 5596 ft 122 kts 340°
2026-04-29 20:30 55.15102 61.63479 5355 ft 126 kts 339°
2026-04-29 20:30 55.15914 61.63113 5042 ft 121 kts 341°
2026-04-29 20:30 55.16785 61.62814 4533 ft 127 kts 344°
2026-04-29 20:31 55.17624 61.62599 4237 ft 120 kts 349°
2026-04-29 20:31 55.18483 61.62476 3815 ft 125 kts 350°
2026-04-29 20:31 55.19323 61.62365 3491 ft 119 kts 350°
2026-04-29 20:31 55.20128 61.62263 3102 ft 110 kts 350°
2026-04-29 20:32 55.20895 61.62166 2757 ft 109 kts 350°
2026-04-29 20:32 55.21642 61.62067 2427 ft 108 kts 350°
2026-04-29 20:32 55.22391 61.61958 2106 ft 107 kts 350°
2026-04-29 20:32 55.22881 61.61880 1949 ft 105 kts 350°
2026-04-29 20:33 55.23819 61.61711 2014 ft 101 kts 345°
2026-04-29 20:33 55.24518 61.61476 2035 ft 105 kts 343°
2026-04-29 20:33 55.25253 61.61212 2028 ft 113 kts 344°
2026-04-29 20:33 55.26022 61.60939 2017 ft 109 kts 344°
2026-04-29 20:34 55.26745 61.60684 1999 ft 104 kts 343°
2026-04-29 20:34 55.27441 61.60436 1990 ft 101 kts 343°
2026-04-29 20:34 55.28123 61.60194 1989 ft 98 kts 344°
2026-04-29 20:34 55.28771 61.59982 1836 ft 99 kts 345°
2026-04-29 20:35 55.29397 61.59616 1593 ft 97 kts 319°
2026-04-29 20:35 55.29671 61.58659 1521 ft 84 kts 269°
2026-04-29 20:35 55.29611 61.57638 1360 ft 86 kts 268°
2026-04-29 20:35 55.29682 61.56569 1251 ft 88 kts 283°
2026-04-29 20:36 55.29824 61.55606 1162 ft 84 kts 285°
2026-04-29 20:36 55.29975 61.54647 1004 ft 80 kts 285°
2026-04-29 20:36 55.30111 61.53735 870 ft 74 kts 284°
2026-04-29 20:36 55.30229 61.52865 785 ft 77 kts 283°
2026-04-29 20:37 55.30348 61.52027 746 ft 59 kts 287°
2026-04-29 20:37 55.30429 61.51495 746 ft 35 kts 284°
2026-04-29 20:37 55.30472 61.51168 745 ft 21 kts 281°
2026-04-29 20:37 55.30494 61.50984 745 ft 10 kts 283°
2026-04-29 20:38 55.30504 61.50908 745 ft 4 kts 283°
2026-04-29 20:38 55.30502 61.50898 745 ft 0 kts 136°
2026-04-29 20:38 55.30490 61.50988 745 ft 18 kts 101°
2026-04-29 20:38 55.30458 61.51299 746 ft 19 kts 100°
2026-04-29 20:39 55.30443 61.51373 758 ft 6 kts 124°
2026-04-29 20:39 55.30384 61.51428 746 ft 13 kts 188°
2026-04-29 20:39 55.30305 61.51393 744 ft 0 kts 193°
2026-04-29 20:41 55.30285 61.51385 744 ft 8 kts 191°
2026-04-29 20:41 55.30206 61.51352 744 ft 14 kts 193°
2026-04-29 20:41 55.30107 61.51310 743 ft 13 kts 196°
2026-04-29 20:42 55.30039 61.51343 743 ft 9 kts 110°
2026-04-29 20:42 55.30021 61.51454 743 ft 8 kts 112°
2026-04-29 20:42 55.30014 61.51514 743 ft 9 kts 103°
2026-04-29 20:42 55.29993 61.51573 743 ft 8 kts 158°
2026-04-29 20:43 55.29937 61.51560 743 ft 9 kts 192°
2026-04-29 20:43 55.29892 61.51507 743 ft 8 kts 268°
2026-04-29 20:43 55.29890 61.51453 743 ft 4 kts 243°
2026-04-29 20:43 55.29864 61.51424 743 ft 5 kts 193°
2026-04-29 20:44 55.29837 61.51413 743 ft 0 kts 192°